Zurück zum Katalog

GALILEO 25

2C1

AktivNavigationMEO
NORAD 43564·PAYLOAD·🇪🇺 EU

Gestartet Jul 25, 2018 von Guiana Space Centre

Loading…

Nächste Überflüge (nächste 24 Stunden)

TLE

AktuellSource: CelesTrak SupGP

Epoche: Sep 13, 2026, 23:59 UTC

1 43564C 18060A   26256.99979167  .00000000  00000+0  00000+0 0  2569
2 43564  57.1333 339.3823 0004499 270.2349 311.1260  1.70476568    19

Verfolge GALILEO 25 in Echtzeit mit AllMySat

Download on the App Store